Le nostre stazioni meteo in Italia

Pubblicità
Il mio iltempo24.it
Ponza, Italia (16280): Temperatura & dewpoint: 10.02.2019 07:00:00 - 16.02.2019 07:00:00 (CET)Ponza, Italia (16280): velocità del vento: 10.02.2019 07:00:00 - 16.02.2019 07:00:00 (CET)Ponza, Italia (16280): direzione del vento: 10.02.2019 07:00:00 - 16.02.2019 07:00:00 (CET)Ponza, Italia (16280): reduced air pressure: 10.02.2019 07:00:00 - 16.02.2019 07:00:00 (CET)Ponza, Italia (16280): visibility: 10.02.2019 07:00:00 - 16.02.2019 07:00:00 (CET)Ponza, Italia (16280): ore di luce: 10.02.2019 07:00:00 - 16.02.2019 07:00:00 (CET)
Data & Tempo tt [°C] td [°C] ff [km/h] ff [kn] dd ppp [hPa] vv [km] sd [min]
16.02.2019 07:00:00 10,4 8,0 11 6 ESE 1028,2 20 0
16.02.2019 06:00:00 11,2 7,9 13 7 ENE 1028,2 20 -
16.02.2019 05:00:00 11,2 7,9 13 7 ENE 1028,1 20 -
16.02.2019 04:00:00 11,4 9,1 13 7 ENE 1027,7 15 -
16.02.2019 03:00:00 11,4 9,0 13 7 ENE 1027,6 10 -
16.02.2019 02:00:00 11,2 8,8 15 8 NE 1027,5 15 -
16.02.2019 01:00:00 11,4 8,1 16 9 NE 1027,5 15 -
16.02.2019 00:00:00 11,6 9,0 18 10 NNE 1026,6 10 -
15.02.2019 23:00:00 11,8 8,3 26 14 NNE 1026,2 15 -
15.02.2019 22:00:00 11,8 8,1 24 13 NNE 1026,4 10 -
15.02.2019 21:00:00 11,8 8,3 16 9 ENE 1026,5 10 -
15.02.2019 20:00:00 11,8 8,1 13 7 ESE 1025,4 20 -
15.02.2019 19:00:00 12,0 7,7 11 6 SE 1025,4 20 -
15.02.2019 18:00:00 12,0 5,9 9 5 S 1025,0 20 36
15.02.2019 17:00:00 12,4 4,4 4 2 SO 1024,4 20 36
15.02.2019 16:00:00 12,8 4,2 4 2 SE 1024,6 30 60
15.02.2019 15:00:00 14,6 6,9 4 2 S 1024,7 20 48
15.02.2019 14:00:00 14,8 6,9 0 0 N 1025,3 20 48
15.02.2019 13:00:00 14,6 7,7 13 7 ESE 1026,3 20 60
15.02.2019 12:00:00 14,0 4,9 13 7 ESE 1026,8 20 60
15.02.2019 11:00:00 13,2 6,1 16 9 ESE 1027,1 20 60
15.02.2019 10:00:00 12,6 6,9 13 7 ESE 1027,2 20 60
15.02.2019 09:00:00 12,6 8,1 13 7 E 1027,2 20 60
15.02.2019 08:00:00 11,2 10,3 8 4 SE 1027,0 30 12
15.02.2019 07:00:00 10,2 9,9 0 0 N 1027,1 30 -
15.02.2019 06:00:00 10,2 9,9 0 0 N 1027,1 30 -
15.02.2019 05:00:00 10,4 10,0 0 0 N 1027,0 20 -
15.02.2019 04:00:00 10,6 10,0 0 0 N 1027,4 30 -
15.02.2019 03:00:00 10,6 10,3 0 0 N 1027,6 20 -
15.02.2019 02:00:00 11,0 11,0 0 0 N 1028,1 30 -
15.02.2019 01:00:00 - - - - - - - -
15.02.2019 00:00:00 10,8 10,5 9 5 O 1028,7 20 -
14.02.2019 23:00:00 - - - - - - - -
14.02.2019 22:00:00 10,8 9,7 16 9 ONO 1029,1 30 -
14.02.2019 21:00:00 10,6 8,9 16 9 ONO 1029,5 30 -
14.02.2019 20:00:00 10,8 9,1 16 9 ONO 1029,7 20 -
14.02.2019 19:00:00 10,2 9,1 13 7 NO 1029,6 30 -
14.02.2019 18:00:00 10,2 8,0 11 6 ONO 1029,6 30 42
14.02.2019 17:00:00 10,6 8,9 11 6 ONO 1029,5 30 60
14.02.2019 16:00:00 11,8 9,2 11 6 ONO 1030,1 30 60
14.02.2019 15:00:00 12,6 9,1 9 5 O 1030,2 20 60
14.02.2019 14:00:00 13,4 9,7 13 7 OSO 1030,2 20 60
14.02.2019 13:00:00 12,4 9,2 13 7 ONO 1031,3 20 60
14.02.2019 12:00:00 12,4 10,5 9 5 ONO 1031,5 30 60
14.02.2019 11:00:00 12,0 9,9 8 4 NNO 1031,5 30 60
14.02.2019 10:00:00 11,4 9,0 13 7 O 1031,5 20 60
14.02.2019 09:00:00 10,8 7,5 13 7 O 1030,9 30 60
14.02.2019 08:00:00 9,8 6,7 11 6 NO 1030,8 15 60
14.02.2019 07:00:00 10,0 6,7 9 5 NO 1030,7 20 -
14.02.2019 06:00:00 - - - - - - - -
14.02.2019 05:00:00 9,8 6,2 13 7 NE 1030,5 15 -
14.02.2019 04:00:00 9,8 6,0 11 6 NE 1030,5 20 -
14.02.2019 03:00:00 - - - - - - - -
14.02.2019 02:00:00 10,0 5,2 15 8 E 1030,7 15 -
14.02.2019 01:00:00 10,0 5,2 13 7 ESE 1030,6 20 -
14.02.2019 00:00:00 9,8 5,6 15 8 ESE 1030,5 15 -
13.02.2019 23:00:00 9,8 5,4 13 7 E 1030,5 20 -
13.02.2019 22:00:00 10,0 6,0 21 11 E 1029,9 20 -
13.02.2019 21:00:00 10,4 6,0 18 10 NNE 1029,3 20 -
13.02.2019 20:00:00 10,6 4,7 34 18 N 1028,7 20 -
13.02.2019 19:00:00 10,8 3,8 29 16 N 1029,2 30 -
13.02.2019 18:00:00 10,0 4,6 5 3 O 1029,1 30 60
13.02.2019 17:00:00 10,4 4,1 9 5 ONO 1029,4 30 60
13.02.2019 16:00:00 10,6 4,5 8 4 NO 1029,7 30 60
13.02.2019 15:00:00 12,0 5,6 8 4 ONO 1029,6 30 60
13.02.2019 14:00:00 12,0 4,5 4 2 N 1029,7 30 60
13.02.2019 13:00:00 13,0 5,4 5 3 E 1030,5 30 60
13.02.2019 12:00:00 11,8 5,7 5 3 NNE 1031,1 30 60
13.02.2019 11:00:00 11,0 4,7 13 7 ENE 1030,8 30 60
13.02.2019 10:00:00 10,4 4,8 11 6 ENE 1030,4 30 60
13.02.2019 09:00:00 9,2 4,0 13 7 NE 1030,2 30 60
13.02.2019 08:00:00 9,0 4,6 11 6 NE 1029,3 30 0
13.02.2019 07:00:00 8,2 3,5 13 7 NNE 1028,8 30 -
13.02.2019 06:00:00 8,2 3,3 11 6 NNE 1028,3 30 -
13.02.2019 05:00:00 8,6 3,8 18 10 NNE 1027,9 30 -
13.02.2019 04:00:00 8,8 3,8 16 9 NNE 1027,7 30 -
13.02.2019 03:00:00 8,8 3,8 16 9 NE 1027,7 30 -
13.02.2019 02:00:00 8,8 3,8 15 8 NE 1027,7 30 -
13.02.2019 01:00:00 9,2 4,0 21 11 ENE 1027,3 30 -
13.02.2019 00:00:00 9,4 4,8 18 10 ENE 1026,7 30 -
12.02.2019 23:00:00 9,6 5,2 21 11 E 1026,6 30 -
12.02.2019 22:00:00 10,2 6,0 18 10 O 1025,3 30 -
12.02.2019 21:00:00 11,0 4,7 16 9 ONO 1024,4 20 -
12.02.2019 20:00:00 11,0 2,6 22 12 NNE 1023,6 30 -
12.02.2019 19:00:00 11,8 2,3 29 16 N 1022,9 30 -
12.02.2019 18:00:00 11,8 3,1 26 14 N 1022,3 30 -
12.02.2019 17:00:00 11,4 2,2 13 7 OSO 1022,4 30 0
12.02.2019 16:00:00 12,0 3,0 22 12 N 1021,5 30 60
12.02.2019 15:00:00 12,0 5,4 22 12 N 1021,3 30 60
12.02.2019 14:00:00 11,6 4,8 28 15 N 1021,3 30 60
12.02.2019 13:00:00 11,6 5,7 15 8 NNO 1021,8 30 60
12.02.2019 12:00:00 11,2 6,1 15 8 N 1022,1 30 60
12.02.2019 11:00:00 11,8 6,1 9 5 N 1021,9 30 60
12.02.2019 10:00:00 12,0 5,9 11 6 N 1022,1 30 60
12.02.2019 09:00:00 11,0 5,5 22 12 N 1021,1 30 60
12.02.2019 08:00:00 9,2 4,0 26 14 N 1019,4 20 18
12.02.2019 07:00:00 8,8 3,6 21 11 N 1018,7 20 -
12.02.2019 06:00:00 8,8 3,0 21 11 N 1017,9 20 -
12.02.2019 05:00:00 8,8 3,0 21 11 N 1017,6 10 -
12.02.2019 04:00:00 8,8 3,8 22 12 N 1017,6 10 -
12.02.2019 03:00:00 8,8 5,2 21 11 N 1016,5 10 -
12.02.2019 02:00:00 9,0 4,8 28 15 N 1016,5 10 -
12.02.2019 01:00:00 9,4 4,6 28 15 N 1015,4 10 -
12.02.2019 00:00:00 - - - - - - - -
11.02.2019 23:00:00 9,8 5,0 24 13 N 1014,6 10 -
11.02.2019 22:00:00 10,0 3,7 31 17 N 1014,2 10 -
11.02.2019 21:00:00 9,2 4,0 16 9 O 1013,7 10 -
11.02.2019 20:00:00 9,2 4,6 63 34 N 1012,4 10 -
11.02.2019 19:00:00 12,0 7,7 54 29 ONO 1012,1 10 -
11.02.2019 18:00:00 13,0 8,7 24 13 N 1011,0 10 18
11.02.2019 17:00:00 - - - - - - - -
11.02.2019 16:00:00 11,8 7,1 48 26 ONO 1009,2 10 60
11.02.2019 15:00:00 10,6 6,7 31 17 NNO 1009,3 10 18
11.02.2019 14:00:00 11,0 8,6 29 16 ONO 1009,3 10 48
11.02.2019 13:00:00 8,4 6,5 48 26 ONO 1010,3 10 18
11.02.2019 12:00:00 9,8 8,2 28 15 ONO 1010,3 6 0
11.02.2019 11:00:00 11,0 8,7 37 20 ONO 1009,8 8 0
11.02.2019 10:00:00 12,6 10,7 46 25 ONO 1009,9 4,0 12
11.02.2019 09:00:00 12,4 9,4 0 0 N 1010,0 9 12
11.02.2019 08:00:00 11,8 9,0 28 15 O 1010,0 9 0
11.02.2019 07:00:00 12,8 9,4 28 15 S 1010,6 9 -
11.02.2019 06:00:00 12,8 11,5 29 16 O 1010,6 8 -
11.02.2019 05:00:00 12,0 11,1 16 9 O 1011,1 9 -
11.02.2019 04:00:00 12,2 11,4 16 9 OSO 1012,1 9 -
11.02.2019 03:00:00 12,2 11,6 16 9 SO 1012,9 8 -
11.02.2019 02:00:00 12,6 12,1 22 12 SSO 1013,1 8 -
11.02.2019 01:00:00 12,4 11,8 24 13 SSO 1014,2 4,0 -
11.02.2019 00:00:00 12,6 11,7 29 16 S 1015,2 7 -
10.02.2019 23:00:00 12,6 12,0 28 15 S 1015,7 8 -
10.02.2019 22:00:00 12,4 11,8 26 14 S 1016,1 10 -
10.02.2019 21:00:00 12,4 11,8 22 12 S 1017,2 10 -
10.02.2019 20:00:00 12,0 11,1 18 10 S 1018,3 10 -
10.02.2019 19:00:00 12,0 11,2 21 11 SSE 1019,2 10 -
10.02.2019 18:00:00 12,2 11,6 18 10 SSE 1019,3 10 -
10.02.2019 17:00:00 12,6 11,8 16 9 S 1019,6 10 42
10.02.2019 16:00:00 12,8 12,0 15 8 SSE 1020,3 10 0
10.02.2019 15:00:00 13,0 11,9 11 6 S 1021,5 10 0
10.02.2019 14:00:00 12,8 11,5 18 10 S 1021,5 20 48
10.02.2019 13:00:00 13,0 11,9 11 6 S 1022,2 20 48
10.02.2019 12:00:00 13,4 11,3 13 7 S 1022,5 20 60
10.02.2019 11:00:00 13,0 10,7 18 10 S 1022,7 30 60
10.02.2019 10:00:00 12,4 11,1 21 11 S 1023,3 20 60
10.02.2019 09:00:00 12,0 11,2 15 8 S 1022,9 20 60
10.02.2019 08:00:00 11,2 10,6 15 8 SSO 1022,8 10 -
10.02.2019 07:00:00 11,0 10,7 18 10 SSO 1022,9 10 -

tt = Temperatura
td = dewpoint
ff = velocità del vento
dd = direzione del vento
ppp = reduced air pressure
vv = visibility
sd = ore di luce

Stazioni seguenti

WeatherPro
AMSI
MeteoEarth